User: anonymous   Login
Location: Unspecified
(0.0000°N, 0.0000°E)
Time: 00:18:06
(UTC+00:00)
Language:

GOMX 1 - Orbit

View from above orbital plane
View from above orbital plane
View from above satellite
View from above satellite

Ground track
Ground track

The orbit data is extracted from the following two-line orbital elements,

1 39423U 13066H   17231.49441395  .00000040  00000-0  17858-4 0  9997
2 39423  97.6869 214.6409 0174350 240.0907 118.2872 14.52859418198426
Epoch (UTC): 19 August 2017 11:51:57
Eccentricity: 0.0174350
inclination: 97.6869°
perigee height: 592 km
apogee height: 840 km
right ascension of ascending node: 214.6409°
argument of perigee: 240.0907°
revolutions per day: 14.52859418
mean anomaly at epoch: 118.2872°
orbit number at epoch: 19842

The dashed part of the orbit path shows where the satellite is in the earth's shadow,  

DLR